Back to catalog

ESIAFI 1

COMSTAR 4

AliveCommunicationsGEO
NORAD 12309·PAYLOAD·🇺🇸 United States

Launched Feb 21, 1981 from Cape Canaveral Space Force Station

Loading…

TLE

FreshSource: Space-Track

Epoch: Sep 13, 2026, 16:28 UTC

1 12309U 81018A   26256.68622691 -.00000072  00000-0  00000-0 0  9994
2 12309   8.5356 310.6773 0001599  75.1282 284.8373  1.00281564168333

Track ESIAFI 1 in real time with AllMySat

Download on the App Store